Regional Weather Roundup
Issued by NWS

Home | Current Version | Previous Version | Text Only | Print | Product List | Glossary Off
Versions: 1 2 3 4 5 6 7 8 9 10 11 12 13 14 15 16 17 18 19 20 21 22 23 24 25 26 27 28 29 30 31 32 33 34 35 36 37 38 39 40 41 42 43 44 45 46 47 48 49 50

000
ASUS43 KBIS 231659
RWRND

NORTH DAKOTA REGIONAL WEATHER ROUNDUP
NATIONAL WEATHER SERVICE BISMARCK ND
1200 PM CDT WED JUL 23 2014

NOTE: "FAIR" INDICATES FEW OR NO CLOUDS BELOW 12,000 FEET WITH NO
SIGNIFICANT WEATHER AND/OR OBSTRUCTIONS TO VISIBILITY.


NDZ001>003-009>011-017-231800-
NORTHWEST NORTH DAKOTA

CITY           SKY/WX    TMP DP  RH WIND       PRES   REMARKS
WILLISTON      SUNNY     82  62  50 SE13G21   30.19F
MINOT          CLOUDY    70  63  78 E15       30.26F
MINOT AFB      PTSUNNY   72  66  83 SE17      30.26S
$$

NDZ018>021-031>035-040>046-231800-
SOUTHWEST NORTH DAKOTA

CITY           SKY/WX    TMP DP  RH WIND       PRES   REMARKS
BISMARCK       CLOUDY    76  62  62 SE12      30.26F
GARRISON         N/A     75  65  70 SE12G18   30.25S
HETTINGER ARPT MOSUNNY   77  62  59 SE10      30.23F
$$

NDZ004>008-012>016-024-026-027-054-231800-
NORTHEAST NORTH DAKOTA

CITY           SKY/WX    TMP DP  RH WIND       PRES   REMARKS
GRAND FORKS    CLOUDY    70  55  59 N8        30.30S
DEVILS LAKE    MOSUNNY   68  54  60 E8        30.30F
$$

NDZ022-023-025-028>030-036>039-047>053-231800-
SOUTHEAST NORTH DAKOTA

CITY           SKY/WX    TMP DP  RH WIND       PRES   REMARKS
FARGO          MOSUNNY   74  59  59 N8        30.29S
$$




USA.gov is the U.S. government's official web portal to all federal, state and local government web resources and services.